Date String (YYYY-MM-DD hh:mm:ss) UTC,Instrument flags,absolute air pressure of the measurement (hPa),sample flow rate (lpm),inlet stack bypass flow (lpm),air temperature of the measurement (°C),ambient temperature measured by the external sensor (°C),aerosol sample conditioner tube jacket temperature (°C),OPC LED temperature (°C),internal box temperature (°C),relative humidity of the measurement (%),span deviation,mass concentration of particles derived from Lorenz-Mie calculation of OPC scattering (μg/m³),mass concentration of particles derived from Lorenz-Mie calculation of OPC scattering (μg/m³),mass concentration of particles derived from Lorenz-Mie calculation of OPC scattering (μg/m³)
DateTimeUTC,F1_M11,P_M11,Q1_M11,Q2_M11,T1_M11,T2_M11,T3_M11,T4_M11,T5_M11,U1_M11,ZSPAN_M11,X2_M11,X0_M11,X1_M11
2024-03-23 17:00:00,SystemResetWarning,0822.4,4.99,000.00,021.1,020.7,000.0,029.5,023.0,20.3,0000.0,0006.39,0026.53,0004.55
2024-03-23 17:01:00,SystemResetWarning,0822.4,4.99,000.00,021.2,020.7,000.0,029.5,023.0,20.3,0000.0,0006.39,0027.41,0004.56
2024-03-23 17:02:00,SystemResetWarning,0822.5,5.00,000.00,021.2,020.7,000.0,029.5,023.0,20.1,0000.0,0006.42,0029.23,0004.57
2024-03-23 17:03:00,SystemResetWarning,0822.4,5.01,000.00,021.2,020.7,000.0,029.5,023.0,20.2,0000.0,0006.47,0030.12,0004.59
2024-03-23 17:04:00,SystemResetWarning,0822.4,5.01,000.00,021.2,020.7,000.0,029.6,023.0,20.2,0000.0,0006.51,0029.33,0004.60
2024-03-23 17:05:00,SystemResetWarning,0822.4,5.00,000.00,021.2,020.7,000.0,029.6,023.1,20.2,0000.0,0006.58,0028.82,0004.62
2024-03-23 17:06:00,SystemResetWarning,0822.4,5.01,000.00,021.2,020.7,000.0,029.6,023.1,20.3,0000.0,0006.60,0028.79,0004.63
2024-03-23 17:07:00,SystemResetWarning,0822.4,4.99,000.00,021.2,020.8,000.0,029.6,023.1,20.1,0000.0,0006.61,0028.40,0004.62
2024-03-23 17:08:00,SystemResetWarning,0822.4,5.00,000.00,021.3,020.8,000.0,029.6,023.1,20.0,0000.0,0006.61,0028.22,0004.62
2024-03-23 17:09:00,SystemResetWarning,0822.4,5.00,000.00,021.3,020.8,000.0,029.6,023.1,20.1,0000.0,0006.61,0027.62,0004.63
2024-03-23 17:10:00,SystemResetWarning,0822.4,5.00,000.00,021.3,020.8,000.0,029.6,023.1,20.2,0000.0,0006.62,0028.07,0004.65
2024-03-23 17:11:00,SystemResetWarning,0822.2,5.01,000.00,021.3,020.8,000.0,029.6,023.1,20.3,0000.9,0006.67,0027.70,0004.66
2024-03-23 17:12:00,SystemResetWarning,0822.2,5.01,000.00,021.3,020.8,000.0,029.6,023.1,20.2,0000.9,0006.69,0026.87,0004.68
2024-03-23 17:13:00,SystemResetWarning,0822.2,5.01,000.00,021.3,020.8,000.0,029.7,023.1,19.9,0000.0,0006.64,0024.70,0004.69
2024-03-23 17:14:00,SystemResetWarning,0822.2,4.99,000.00,021.3,020.8,000.0,029.7,023.2,20.1,0000.6,0006.65,0023.61,0004.69
2024-03-23 17:15:00,SystemResetWarning,0822.2,4.99,000.00,021.3,020.9,000.0,029.7,023.2,20.6,0000.0,0006.64,0023.11,0004.71
2024-03-23 17:16:00,SystemResetWarning,0822.2,5.00,000.00,021.4,020.9,000.0,029.7,023.2,20.8,0000.9,0006.57,0022.53,0004.72
2024-03-23 17:17:00,SystemResetWarning,0822.2,5.02,000.00,021.4,020.9,000.0,029.7,023.2,20.6,0001.5,0006.54,0023.26,0004.73
2024-03-23 17:18:00,SystemResetWarning,0822.2,4.99,000.00,021.4,020.9,000.0,029.7,023.2,20.5,0002.1,0006.53,0022.87,0004.75
2024-03-23 17:19:00,SystemResetWarning,0822.2,4.99,000.00,021.4,020.9,000.0,029.7,023.2,20.5,0002.9,0006.53,0022.39,0004.75
2024-03-23 17:20:00,SystemResetWarning,0822.1,4.99,000.00,021.4,020.9,000.0,029.8,023.2,20.5,0000.8,0006.52,0020.93,0004.74
2024-03-23 17:21:00,SystemResetWarning,0822.1,5.01,000.00,021.4,020.9,000.0,029.8,023.3,20.7,0000.0,0006.51,0019.66,0004.74
2024-03-23 17:22:00,SystemResetWarning,0822.1,5.01,000.00,021.4,020.9,000.0,029.8,023.3,20.5,0000.0,0006.51,0019.67,0004.74
2024-03-23 17:23:00,SystemResetWarning,0822.1,4.99,000.00,021.5,020.9,000.0,029.8,023.3,20.3,0001.5,0006.53,0019.86,0004.74
2024-03-23 17:24:00,SystemResetWarning,0822.0,4.99,000.00,021.5,020.9,000.0,029.8,023.3,20.3,0001.5,0006.54,0019.84,0004.72
2024-03-23 17:25:00,SystemResetWarning,0822.0,4.99,000.00,021.5,020.9,000.0,029.8,023.3,20.3,0000.0,0006.48,0019.36,0004.71
2024-03-23 17:26:00,SystemResetWarning,0821.9,5.00,000.00,021.5,020.9,000.0,029.8,023.3,20.4,0000.0,0006.51,0020.03,0004.70
2024-03-23 17:27:00,SystemResetWarning,0821.9,5.00,000.00,021.5,020.9,000.0,029.8,023.3,20.3,0000.0,0006.53,0020.72,0004.71
2024-03-23 17:28:00,SystemResetWarning,0822.0,5.00,000.00,021.5,020.9,000.0,029.8,023.3,20.3,0000.0,0006.52,0019.10,0004.70
2024-03-23 17:29:00,SystemResetWarning,0822.0,5.00,000.00,021.5,021.0,000.0,029.9,023.3,20.2,0000.0,0006.49,0018.63,0004.70
2024-03-23 17:30:00,SystemResetWarning,0822.0,5.00,000.00,021.5,021.0,000.0,029.9,023.3,20.4,0000.0,0006.50,0018.22,0004.70
2024-03-23 17:31:00,SystemResetWarning,0821.9,5.00,000.00,021.5,021.0,000.0,029.9,023.3,20.5,0000.0,0006.48,0018.34,0004.70
2024-03-23 17:32:00,SystemResetWarning,0821.9,5.00,000.00,021.5,021.0,000.0,029.9,023.4,20.0,0000.0,0006.50,0017.84,0004.71
2024-03-23 17:33:00,SystemResetWarning,0821.9,5.00,000.00,021.6,021.0,000.0,029.9,023.4,20.0,0000.0,0006.49,0017.70,0004.71
2024-03-23 17:34:00,SystemResetWarning,0821.8,4.99,000.00,021.6,021.0,000.0,029.9,023.4,19.9,0000.0,0006.47,0017.89,0004.71
2024-03-23 17:35:00,SystemResetWarning,0821.8,4.99,000.00,021.6,021.0,000.0,029.9,023.4,19.9,0000.0,0006.52,0019.08,0004.72
2024-03-23 17:36:00,SystemResetWarning,0821.7,5.03,000.00,021.6,021.0,000.0,030.0,023.4,19.7,0000.0,0006.57,0019.46,0004.74
2024-03-23 17:37:00,SystemResetWarning,0821.7,4.99,000.00,021.6,021.0,000.0,030.0,023.4,19.8,0000.0,0006.58,0018.55,0004.76
2024-03-23 17:38:00,SystemResetWarning,0821.7,4.99,000.00,021.6,021.0,000.0,030.0,023.4,20.0,0000.0,0006.61,0018.27,0004.76
2024-03-23 17:39:00,SystemResetWarning,0821.6,5.00,000.00,021.6,021.1,000.0,030.0,023.4,20.0,0000.0,0006.64,0018.07,0004.75
2024-03-23 17:40:00,SystemResetWarning,0821.6,5.01,000.00,021.6,021.1,000.0,030.0,023.4,19.9,0000.0,0006.60,0018.10,0004.74
2024-03-23 17:41:00,SystemResetWarning,0821.7,5.01,000.00,021.6,021.1,000.0,030.0,023.5,20.0,0000.0,0006.60,0018.58,0004.72
2024-03-23 17:42:00,SystemResetWarning,0821.7,5.00,000.00,021.7,021.1,000.0,030.0,023.5,19.7,0000.0,0006.55,0017.90,0004.71
2024-03-23 17:43:00,SystemResetWarning,0821.7,5.00,000.00,021.7,021.1,000.0,030.0,023.5,19.7,0000.0,0006.51,0017.61,0004.70
2024-03-23 17:44:00,SystemResetWarning,0821.8,5.00,000.00,021.7,021.1,000.0,030.0,023.5,19.8,0000.0,0006.54,0017.01,0004.69
2024-03-23 17:45:00,SystemResetWarning,0821.7,4.99,000.00,021.7,021.2,000.0,030.0,023.5,19.2,0000.0,0006.49,0016.54,0004.67
2024-03-23 17:46:00,SystemResetWarning,0821.7,5.01,000.00,021.7,021.2,000.0,030.0,023.5,19.4,0000.0,0006.44,0016.32,0004.65
2024-03-23 17:47:00,SystemResetWarning,0821.6,5.01,000.00,021.7,021.2,000.0,030.1,023.5,19.4,0000.0,0006.40,0016.81,0004.64
2024-03-23 17:48:00,SystemResetWarning,0821.7,4.99,000.00,021.7,021.2,000.0,030.1,023.5,20.0,0000.0,0006.33,0017.88,0004.62
2024-03-23 17:49:00,SystemResetWarning,0821.6,4.99,000.00,021.7,021.2,000.0,030.1,023.6,20.4,0000.0,0006.29,0018.49,0004.62
2024-03-23 17:50:00,SystemResetWarning,0821.7,5.02,000.00,021.7,021.2,000.0,030.1,023.6,20.6,0000.0,0006.29,0018.24,0004.63
2024-03-23 17:51:00,SystemResetWarning,0821.7,5.00,000.00,021.8,021.2,000.0,030.1,023.6,20.3,0000.0,0006.28,0019.08,0004.64
2024-03-23 17:52:00,SystemResetWarning,0821.6,4.99,000.00,021.8,021.2,000.0,030.1,023.6,20.1,0000.0,0006.28,0019.11,0004.66
2024-03-23 17:53:00,SystemResetWarning,0821.7,5.00,000.00,021.8,021.2,000.0,030.1,023.6,19.9,0000.0,0006.36,0019.28,0004.70
2024-03-23 17:54:00,SystemResetWarning,0822.0,5.01,000.00,021.8,021.2,000.0,030.2,023.6,19.9,0000.0,0006.38,0019.87,0004.72
2024-03-23 17:55:00,SystemResetWarning,0822.0,5.01,000.00,021.8,021.2,000.0,030.2,023.6,19.4,0000.0,0006.29,0020.95,0004.72
2024-03-23 17:56:00,SystemResetWarning,0822.0,5.00,000.00,021.8,021.2,000.0,030.2,023.6,19.6,0000.0,0006.29,0022.90,0004.73
2024-03-23 17:57:00,SystemResetWarning,0822.0,5.00,000.00,021.8,021.3,000.0,030.2,023.6,20.0,0000.0,0006.27,0022.91,0004.73
2024-03-23 17:58:00,SystemResetWarning,0822.1,4.99,000.00,021.8,021.3,000.0,030.2,023.6,19.7,0000.0,0006.30,0024.11,0004.73
2024-03-23 17:59:00,SystemResetWarning,0822.0,5.00,000.00,021.8,021.3,000.0,030.2,023.7,20.0,0000.0,0006.34,0025.34,0004.74
